W5CMS-13 Weather Reports


time (UTC)temp
C
wind
direction
speed
KPH
gust
KPH
rain 1hr
cm
rain 24hr
cm
rain mn
cm
humidity
%
barometer
mb
20260506024016 21 0.0 0.0 0.00 0.00 0.00 77 1006.6
20260506023016 21 0.0 8.0 0.00 0.00 0.00 77 1006.1
20260506022017 21 23 1.6 14.5 0.00 0.00 0.00 77 1005.9
20260506021016 22 0.0 0.0 0.00 0.00 0.00 76 1005.7
20260506020016 22 0.0 4.8 0.00 0.00 0.00 74 1005.2
20260506015016 22 23 1.6 11.3 0.00 0.00 0.00 74 1005.4
20260506014016 22 0.0 8.0 0.00 0.00 0.00 73 1005.2
20260506013016 22 0.0 4.8 0.00 0.00 0.00 72 1005.2
20260506012017 23 0.0 8.0 0.00 0.00 0.00 72 1005.1
20260506011016 23 23 1.6 8.0 0.00 0.00 0.00 73 1005.0
20260506010016 23 0.0 1.6 0.00 0.00 0.00 72 1004.7
20260506005016 23 0.0 4.8 0.00 0.00 0.00 71 1004.2
20260506004016 23 23 1.6 8.0 0.00 0.00 0.00 71 1004.5
20260506003016 24 0.0 0.0 0.00 0.00 0.00 71 1004.4
20260506002016 25 0.0 9.7 0.00 0.00 0.00 70 1004.4
20260506001017 25 0.0 9.7 0.00 0.00 0.00 68 1004.6
20260506000016 26 0 1.6 12.9 0.00 0.00 0.00 68 1003.9
20260505235016 26 0.0 3.2 0.00 0.00 0.00 66 1003.6
20260505234016 27 0 1.6 14.5 0.00 0.00 0.00 64 1003.7
20260505233016 28 23 1.6 12.9 0.00 0.00 0.00 62 1003.8
20260505232016 30 0 1.6 11.3 0.00 0.00 0.00 57 1003.4
20260505231016 30 23 1.6 11.3 0.00 0.00 0.00 54 1003.3
20260505230016 31 0.0 3.2 0.00 0.00 0.00 54 1003.0
20260505225016 32 248 1.6 14.5 0.00 0.00 0.00 56 1003.0
20260505224016 31 203 1.6 9.7 0.00 0.00 0.00 57 1002.9
20260505223016 31 0.0 0.0 0.00 0.00 0.00 57 1002.8
20260505222016 31 248 3.2 12.9 0.00 0.00 0.00 57 1002.6
20260505221016 31 0.0 6.4 0.00 0.00 0.00 58 1002.6
20260505220016 32 248 1.6 11.3 0.00 0.00 0.00 58 1002.8
20260505215016 31 248 1.6 11.3 0.00 0.00 0.00 59 1002.9
20260505214016 31 203 1.6 11.3 0.00 0.00 0.00 59 1002.9
20260505213016 31 270 1.6 12.9 0.00 0.00 0.00 59 1003.0
20260505212016 32 203 1.6 11.3 0.00 0.00 0.00 61 1003.1
20260505211016 32 225 4.8 17.7 0.00 0.00 0.00 60 1003.2
20260505210016 31 225 3.2 12.9 0.00 0.00 0.00 63 1003.2
20260505205016 31 225 4.8 19.3 0.00 0.00 0.00 64 1003.4
20260505204016 31 225 9.7 24.1 0.00 0.00 0.00 64 1003.5
20260505203016 31 248 4.8 24.1 0.00 0.00 0.00 64 1003.8
20260505202017 30 203 6.4 20.9 0.00 0.00 0.00 66 1003.7
20260505201016 30 225 8.0 17.7 0.00 0.00 0.00 67 1003.8
20260505200016 30 225 4.8 22.5 0.00 0.00 0.00 66 1003.8
20260505195016 30 225 4.8 17.7 0.00 0.00 0.00 67 1003.9
20260505194016 30 225 3.2 12.9 0.00 0.00 0.00 67 1004.0
20260505193016 29 248 4.8 19.3 0.00 0.00 0.00 68 1003.9
20260505192016 29 203 8.0 22.5 0.00 0.00 0.00 69 1004.0
20260505191016 28 225 9.7 25.7 0.00 0.00 0.00 69 1004.0
20260505190016 28 225 9.7 20.9 0.00 0.00 0.00 71 1004.1
20260505185016 28 203 8.0 20.9 0.00 0.00 0.00 71 1004.1
20260505184016 28 248 6.4 19.3 0.00 0.00 0.00 72 1004.2
20260505183016 28 225 6.4 20.9 0.00 0.00 0.00 72 1004.1
20260505182016 28 225 4.8 19.3 0.00 0.00 0.00 71 1004.1
20260505181016 28 225 6.4 17.7 0.00 0.00 0.00 72 1004.3
20260505180016 27 225 4.8 19.3 0.00 0.00 0.00 73 1004.2
20260505175016 27 225 6.4 16.1 0.00 0.00 0.00 73 1004.2
20260505174016 27 248 3.2 20.9 0.00 0.00 0.00 74 1004.2
20260505173019 27 225 4.8 22.5 0.00 0.00 0.00 75 1004.3
20260505172020 26 225 8.0 24.1 0.00 0.00 0.00 76 1004.4
20260505171016 26 225 6.4 17.7 0.00 0.00 0.00 76 1004.5
20260505170016 26 225 12.9 27.4 0.00 0.00 0.00 77 1004.3
20260505165016 26 225 11.3 24.1 0.00 0.00 0.00 76 1004.3
20260505164016 26 225 11.3 30.6 0.00 0.00 0.00 76 1004.2
20260505163016 26 225 8.0 24.1 0.00 0.00 0.00 77 1004.1
20260505162016 26 225 12.9 35.4 0.00 0.00 0.00 77 1004.2
20260505161016 25 225 9.7 32.2 0.00 0.00 0.00 77 1004.1
20260505153016 25 225 8.0 25.7 0.00 0.00 0.00 79 1003.9
20260505152016 25 225 9.7 27.4 0.00 0.00 0.00 79 1004.0
20260505151016 24 225 11.3 27.4 0.00 0.00 0.00 80 1004.2
20260505125016 22 203 6.4 25.7 0.00 0.00 0.00 86 1003.5
20260505124016 22 225 8.0 25.7 0.00 0.00 0.00 86 1003.8
20260505123016 22 225 8.0 22.5 0.00 0.00 0.00 86 1003.3
20260505122016 22 225 6.4 29.0 0.00 0.00 0.00 86 1003.2
20260505121016 22 225 6.4 24.1 0.00 0.00 0.00 86 1003.3
20260505120016 22 225 3.2 14.5 0.00 0.00 0.00 86 1003.2
20260505115016 22 225 6.4 20.9 0.00 0.00 0.00 86 1003.1
20260505114016 22 225 8.0 24.1 0.00 0.00 0.00 86 1003.0
20260505113016 22 225 8.0 30.6 0.00 0.00 0.00 86 1003.1
20260505112016 22 225 6.4 22.5 0.00 0.00 0.00 86 1003.0
20260505111016 22 225 6.4 20.9 0.00 0.00 0.00 85 1003.1
20260505102016 22 203 4.8 20.9 0.00 0.00 0.00 86 1003.2
20260505101017 22 225 8.0 29.0 0.00 0.00 0.00 85 1003.2
20260505100017 22 203 8.0 27.4 0.00 0.00 0.00 85 1003.2
20260505095016 22 225 4.8 22.5 0.00 0.00 0.00 86 1003.3
20260505094016 22 203 8.0 17.7 0.00 0.00 0.00 86 1003.2
20260505093016 21 225 8.0 19.3 0.00 0.00 0.00 86 1003.4
20260505092016 21 225 8.0 24.1 0.00 0.00 0.00 86 1003.5
20260505091016 21 225 8.0 24.1 0.00 0.00 0.00 86 1003.5
20260505090016 21 203 6.4 17.7 0.00 0.00 0.00 86 1003.5
20260505085016 21 225 8.0 27.4 0.00 0.00 0.00 86 1003.5
20260505084016 21 203 6.4 24.1 0.00 0.00 0.00 86 1003.6
20260505083016 21 203 3.2 20.9 0.00 0.00 0.00 86 1003.6
20260505082016 21 203 3.2 20.9 0.00 0.00 0.00 85 1003.6
20260505081016 21 225 3.2 19.3 0.00 0.00 0.00 85 1003.7
20260505080016 22 225 8.0 24.1 0.00 0.00 0.00 84 1003.7
20260505075016 22 203 8.0 20.9 0.00 0.00 0.00 84 1003.8
20260505074016 22 203 8.0 19.3 0.00 0.00 0.00 84 1004.0
20260505073016 22 225 8.0 22.5 0.00 0.00 0.00 83 1004.3
20260505072017 22 203 8.0 19.3 0.00 0.00 0.00 83 1004.4
20260505071016 22 225 9.7 20.9 0.00 0.00 0.00 82 1004.5
20260505070016 22 225 11.3 27.4 0.00 0.00 0.00 82 1004.7
20260505065016 22 225 9.7 30.6 0.00 0.00 0.00 81 1004.7
20260505064016 22 203 8.0 19.3 0.00 0.00 0.00 81 1004.9
20260505063016 22 203 6.4 20.9 0.00 0.00 0.00 81 1005.0
20260505062016 22 225 8.0 27.4 0.00 0.00 0.00 81 1004.9
20260505061016 22 203 8.0 20.9 0.00 0.00 0.00 80 1004.9
20260505060016 22 203 8.0 22.5 0.00 0.00 0.00 80 1004.8
20260505055018 22 180 4.8 16.1 0.00 0.00 0.00 80 1004.9
20260505054016 22 203 6.4 20.9 0.00 0.00 0.00 79 1005.0
20260505053016 22 203 3.2 20.9 0.00 0.00 0.00 79 1005.1
20260505052016 22 203 6.4 19.3 0.00 0.00 0.00 79 1005.1
20260505051016 22 225 6.4 20.9 0.00 0.00 0.00 78 1005.3
20260505041016 23 203 3.2 16.1 0.00 0.00 0.00 76 1005.5
20260505040016 23 203 1.6 11.3 0.00 0.00 0.00 75 1005.5
20260505035017 23 203 3.2 16.1 0.00 0.00 0.00 75 1005.4
20260505034016 23 203 4.8 17.7 0.00 0.00 0.00 75 1005.3
20260505033016 23 203 4.8 16.1 0.00 0.00 0.00 74 1005.4
20260505032016 23 180 1.6 12.9 0.00 0.00 0.00 74 1005.4
20260505031017 23 203 8.0 24.1 0.00 0.00 0.00 74 1005.3
20260505030016 23 203 4.8 19.3 0.00 0.00 0.00 74 1005.4
20260505025016 23 225 8.0 24.1 0.00 0.00 0.00 73 1005.5